Location: Lansingburgh
(42.7845°N, 73.6696°W)
Time: 23:46:13
(UTC+00:00)

BlueWalker 3 - Pass Details

Date: 21 December 2025
Orbit: 451 x 463 km, 53.2° (Epoch: 15 January)

Event Time Altitude Azimuth Distance (km) Brightness Sun altitude
Exits shadow 10:17:23 - 193° (SSW) 2,279 5.3 -22.0°
Maximum altitude 10:22:03 19° 130° (SE) 1,134 4.4 -21.1°
Drops below altitude 10° 10:24:40 10° 83° (E) 1,591 5.5 -20.7°
Sets 10:27:13 0° 66° (ENE) 2,471 6.3 -20.2°
